Wind_Speed
11 12 14 16 19 21 23 26 29 31 34 38 41 44 47 49 52 54 56 57 58 60 61 63 64 65 66 67 68 68 67 65 64 61 59 58 57 57 57 56 57 57 57 57
13 14 15 17 19 22 24 26 29 32 34 38 42 45 48 51 53 55 58 60 60 61 62 63 64 65 66 67 67 67 66 65 63 61 59 58 57 56 56 56 56 56 56 56
15 16 16 18 19 22 25 27 30 33 36 39 42 45 49 52 54 56 59 62 63 62 62 63 64 65 66 66 67 67 66 64 62 60 59 57 57 56 55 55 55 55 55 54
18 18 19 20 21 23 25 28 31 33 37 39 42 46 49 52 55 57 60 63 64 64 64 63 64 65 66 66 66 66 65 64 62 60 58 57 56 55 55 54 54 54 54 53
22 22 22 22 24 25 27 28 32 35 37 40 43 46 49 52 55 58 60 63 65 66 65 64 64 65 66 66 66 66 65 64 62 59 57 56 55 55 54 54 54 53 53 52
26 26 25 26 27 28 30 31 33 36 39 41 44 47 49 52 55 58 60 63 65 67 67 65 65 65 65 65 65 65 65 63 62 59 57 56 55 54 54 54 53 53 52 52
29 29 28 29 30 31 31 34 36 38 40 42 45 47 49 52 55 58 60 62 65 67 68 67 65 65 65 65 65 65 65 64 62 59 57 55 54 54 53 53 53 52 51 51
32 31 31 32 32 33 34 34 36 38 41 43 45 47 49 52 55 57 60 62 64 66 68 68 66 65 65 65 65 64 64 63 62 59 57 55 54 53 53 52 52 51 50 49
35 33 34 34 34 35 36 37 38 39 41 43 46 47 49 51 54 57 59 61 63 65 67 68 67 65 65 65 65 64 63 63 62 60 57 55 53 52 52 51 51 50 49 48
38 34 35 37 37 38 39 39 40 41 42 44 46 48 48 50 53 56 59 61 62 64 66 68 67 66 65 64 64 63 63 62 61 60 57 55 52 52 51 50 50 49 49 48
40 37 38 39 39 40 40 41 41 42 43 45 47 48 49 50 52 56 58 60 61 63 65 67 67 66 65 64 63 63 62 62 61 59 57 55 53 51 50 50 50 49 49 48
42 40 43 42 41 42 42 43 43 44 45 46 47 48 49 49 52 55 57 59 60 61 63 65 67 66 65 63 63 62 61 61 60 59 57 54 52 51 51 50 50 49 48 48
43 43 45 45 45 44 45 45 45 46 47 47 48 49 49 49 51 54 56 58 59 60 62 64 66 65 64 63 62 61 61 60 59 58 57 54 51 50 49 49 49 49 48 47
44 46 47 46 47 46 46 47 48 48 48 49 49 50 50 50 51 53 56 56 57 59 60 62 64 65 64 62 61 60 60 59 59 58 57 54 51 49 48 47 47 47 47 46
47 48 50 49 48 48 48 49 49 49 49 50 50 50 51 50 51 53 55 56 56 57 59 60 62 63 63 62 60 59 59 59 58 58 57 55 52 49 48 47 46 46 45 45
54 53 52 51 50 49 50 50 50 50 51 51 50 51 52 52 51 52 53 54 55 56 57 59 60 62 62 61 59 58 58 58 57 57 56 55 52 49 48 46 45 45 44 44
61 59 57 55 53 51 51 52 52 53 53 52 51 51 52 52 51 51 52 53 54 54 56 57 59 60 61 60 58 57 57 57 56 56 55 54 52 49 47 46 45 45 44 43
65 64 63 61 57 55 54 54 54 54 54 53 53 52 53 52 52 51 52 52 52 53 54 55 57 59 59 58 57 56 55 55 55 55 55 54 52 50 47 45 44 44 44 43
66 66 65 64 61 58 57 56 56 57 56 55 54 54 54 53 53 52 51 51 51 51 52 53 55 57 58 57 56 55 54 54 54 54 54 53 52 50 47 45 44 43 43 43
62 62 62 62 61 60 58 56 57 57 57 57 55 54 54 54 54 53 51 50 50 50 50 51 53 55 56 55 54 53 52 52 52 53 53 52 51 50 47 45 43 42 42 42
63 63 61 60 59 58 58 57 56 56 56 56 55 55 55 54 53 52 51 49 49 48 49 49 51 53 54 54 52 51 51 51 51 51 51 51 51 49 47 45 43 42 42 41
64 64 62 61 59 58 57 56 56 56 55 54 55 55 55 54 53 51 49 48 47 46 47 48 49 50 52 52 50 50 49 49 50 50 50 50 50 49 47 45 43 41 41 40
66 65 63 61 60 58 56 55 55 55 55 55 54 54 54 53 52 50 48 47 45 44 45 46 47 48 50 49 48 47 47 48 48 49 49 49 49 48 46 45 42 41 40 39
67 67 65 63 60 58 57 55 54 54 54 54 53 53 53 53 51 49 48 46 43 43 44 44 45 46 48 47 46 45 45 46 47 47 48 48 48 47 46 44 42 40 39 38
66 64 63 62 61 59 56 55 53 53 53 53 52 51 51 50 50 48 46 44 42 41 42 43 43 44 45 45 44 43 43 44 45 46 46 47 47 46 45 43 42 40 38 37
64 63 61 59 58 57 55 54 53 52 52 51 51 51 50 49 48 47 45 43 41 40 41 41 42 42 43 42 41 41 41 42 43 44 45 45 46 45 44 42 41 39 38 36
63 63 61 58 55 54 54 53 52 50 50 50 51 51 50 49 47 46 44 42 40 39 39 39 39 40 40 40 39 39 39 40 41 42 43 44 44 44 43 42 40 38 37 35
Wind_Direction
312 323 332 337 342 346 350 353 355 357 357 358 357 357 356 355 354 354 352 350 348 347 347 346 346 346 346 347 348 348 349 349 350 351 351 352 353 354 355 356 358 359 1 2
303 313 322 328 333 338 343 347 350 352 354 355 355 355 355 355 354 354 353 352 350 348 347 347 347 347 347 348 349 349 350 351 351 352 352 353 354 355 356 358 359 1 2 3
292 301 309 316 325 332 337 341 345 348 350 352 353 353 354 354 354 354 354 354 352 350 348 348 348 348 348 349 349 350 351 352 352 353 353 354 355 356 357 359 360 1 3 4
285 293 301 310 318 324 331 335 339 342 345 348 350 351 351 352 352 353 353 354 353 351 350 349 348 349 349 349 350 351 352 353 353 353 354 355 356 357 358 359 0 2 4 5
281 287 295 303 311 318 324 329 333 337 340 343 346 348 349 350 350 351 352 352 353 352 351 349 349 349 349 350 350 351 352 353 354 354 355 356 356 358 359 360 1 2 4 5
280 286 293 300 307 312 317 322 328 333 336 339 341 344 347 348 348 349 350 351 351 352 351 350 349 349 350 350 351 352 352 353 354 354 355 356 357 358 359 0 1 3 4 5
278 284 291 297 302 308 314 320 325 329 332 335 337 340 342 345 346 347 348 349 350 351 351 350 349 349 350 350 351 351 352 353 354 355 355 356 357 358 359 0 1 3 3 4
275 282 289 293 298 303 309 314 318 323 326 330 333 335 338 341 343 345 346 347 348 350 350 351 350 349 350 350 350 351 352 353 354 355 356 356 357 358 359 0 1 3 3 4
274 281 285 289 294 299 303 308 312 317 321 325 328 331 334 337 340 342 343 345 346 348 349 350 350 349 349 350 350 351 352 353 354 354 355 356 357 358 359 0 1 2 3 3
274 278 282 285 289 293 298 302 307 311 316 319 323 327 330 333 336 339 341 342 344 346 347 349 349 349 349 349 349 350 352 353 354 354 355 356 357 357 358 360 1 1 2 3
273 277 278 281 286 290 293 298 302 306 310 314 318 322 325 329 332 335 338 340 342 344 346 347 348 348 348 348 349 350 351 352 353 354 354 355 356 357 358 359 360 1 2 3
273 275 276 278 281 285 289 293 297 301 305 309 313 317 321 324 328 332 335 337 339 342 344 345 347 347 348 348 348 349 350 352 353 354 354 354 355 356 357 358 359 0 1 2
273 274 276 278 280 282 285 288 292 296 300 304 308 312 316 319 323 327 331 334 337 339 342 343 345 346 347 347 347 348 350 351 352 353 354 355 355 355 356 357 358 359 0 1
271 273 273 275 277 280 282 285 288 291 295 299 303 307 311 315 319 323 328 331 334 337 339 341 343 345 346 346 347 347 348 350 351 353 354 354 355 355 356 357 357 358 359 0
270 271 271 272 274 276 279 281 284 287 291 294 298 302 306 310 314 319 324 328 331 334 337 339 341 343 344 345 346 346 347 349 350 352 353 354 354 355 355 356 357 358 358 359
270 269 270 270 271 272 274 277 280 283 286 290 293 297 301 306 310 315 320 324 328 331 334 337 339 341 343 344 345 345 346 348 349 351 352 353 354 354 355 356 357 357 358 359
271 270 269 268 268 269 270 273 276 279 282 285 289 293 297 302 306 311 316 320 324 328 331 334 336 339 341 342 343 344 345 346 348 350 351 352 353 354 354 355 356 357 357 358
270 270 270 269 268 269 269 270 272 275 278 281 285 288 292 297 302 306 311 316 320 324 328 331 334 337 339 341 342 343 344 345 347 348 350 351 352 353 354 354 355 356 357 357
269 269 269 269 269 268 268 269 270 272 274 277 281 285 288 293 297 302 307 312 317 321 325 329 331 334 337 339 340 342 343 344 346 347 349 350 352 352 353 354 355 355 356 357
270 270 270 269 269 268 268 268 268 269 271 274 277 280 284 288 293 297 302 307 312 317 321 325 328 332 335 337 339 340 342 343 345 346 348 349 351 352 352 353 354 355 356 356
271 271 271 270 269 269 268 268 268 268 269 271 273 276 280 284 289 293 298 303 308 313 317 322 325 329 333 335 337 338 340 342 343 345 347 348 350 351 352 352 353 354 355 356
272 271 271 270 269 268 267 267 266 266 267 268 270 273 276 280 284 289 294 298 304 309 313 319 322 326 330 333 335 336 338 340 342 344 346 347 349 350 351 352 353 353 354 355
274 272 271 269 269 268 267 266 265 264 265 266 267 269 272 275 279 284 289 294 300 304 309 315 319 323 328 331 333 334 337 339 341 343 344 346 348 349 350 351 352 352 353 355
273 272 271 269 268 267 266 265 264 262 261 262 264 266 268 272 276 280 284 290 295 300 305 311 315 321 326 329 330 332 335 337 339 341 343 345 347 348 349 350 351 352 353 354
272 271 269 268 266 265 264 263 262 261 259 258 260 262 265 268 271 275 280 285 291 296 301 307 312 318 323 327 328 330 333 335 338 340 342 344 346 347 348 350 351 351 352 353
270 268 266 266 264 261 260 259 258 258 257 255 255 257 260 263 267 271 276 281 286 292 298 303 309 316 321 324 326 328 331 333 336 338 340 343 345 346 348 349 350 351 352 353
267 265 262 260 259 257 255 254 253 252 252 252 251 252 255 259 263 267 272 277 282 288 294 300 307 314 318 322 324 326 329 332 334 337 339 341 343 345 347 348 349 350 351 352
Height
5865 5862 5859 5855 5852 5847 5842 5837 5832 5827 5819 5812 5803 5795 5785 5775 5764 5754 5742 5730 5718 5705 5692 5678 5664 5649 5634 5618 5603 5587 5571 5555 5540 5525 5511 5497 5483 5469 5455 5441 5427 5412 5398 5383
5861 5858 5855 5852 5848 5843 5838 5834 5828 5822 5816 5808 5800 5790 5781 5771 5761 5750 5738 5726 5713 5700 5687 5673 5659 5644 5629 5614 5599 5583 5568 5553 5538 5523 5509 5495 5482 5468 5454 5440 5427 5413 5399 5385
5857 5854 5852 5849 5845 5840 5835 5830 5824 5818 5812 5804 5796 5787 5777 5768 5757 5746 5734 5722 5709 5696 5683 5669 5655 5640 5626 5611 5596 5580 5565 5550 5535 5521 5507 5494 5480 5467 5454 5441 5427 5414 5400 5387
5852 5850 5847 5846 5840 5836 5831 5826 5820 5813 5807 5800 5792 5783 5773 5763 5753 5742 5730 5718 5705 5692 5679 5665 5651 5637 5622 5608 5593 5578 5563 5548 5534 5520 5506 5493 5480 5467 5454 5441 5428 5415 5402 5389
5846 5844 5842 5839 5835 5830 5826 5822 5815 5809 5802 5795 5787 5779 5770 5760 5749 5738 5727 5715 5702 5689 5675 5661 5647 5634 5619 5605 5590 5576 5561 5547 5533 5519 5505 5492 5480 5467 5454 5441 5429 5416 5404 5391
5839 5837 5835 5834 5829 5824 5821 5816 5810 5803 5796 5789 5781 5774 5766 5755 5745 5734 5723 5711 5698 5685 5672 5658 5644 5630 5616 5602 5588 5574 5560 5545 5531 5518 5505 5492 5479 5467 5454 5442 5429 5417 5405 5393
5832 5829 5828 5826 5821 5817 5814 5809 5803 5796 5790 5783 5776 5768 5760 5750 5740 5730 5719 5707 5695 5682 5669 5655 5641 5627 5614 5600 5586 5572 5558 5544 5530 5517 5504 5492 5479 5467 5455 5442 5429 5417 5406 5394
5824 5823 5823 5817 5813 5810 5807 5802 5796 5790 5784 5778 5770 5762 5754 5745 5736 5726 5715 5703 5691 5679 5666 5652 5638 5625 5611 5598 5584 5570 5557 5543 5530 5517 5504 5491 5479 5467 5455 5443 5431 5419 5408 5397
5817 5818 5813 5809 5805 5802 5798 5794 5789 5784 5778 5771 5764 5757 5749 5740 5731 5721 5711 5700 5688 5676 5663 5649 5636 5622 5609 5595 5582 5568 5555 5542 5529 5515 5503 5491 5479 5467 5456 5444 5433 5422 5411 5400
5807 5809 5804 5800 5797 5793 5789 5786 5781 5776 5771 5765 5758 5751 5743 5735 5726 5716 5706 5696 5684 5672 5660 5647 5633 5620 5606 5593 5580 5567 5554 5540 5527 5514 5502 5490 5479 5468 5457 5446 5435 5424 5413 5402
5797 5798 5794 5791 5787 5784 5780 5777 5773 5768 5763 5757 5751 5744 5737 5729 5720 5711 5702 5691 5680 5669 5657 5644 5631 5617 5604 5591 5578 5565 5552 5539 5526 5513 5501 5489 5478 5468 5457 5446 5436 5425 5414 5403
5787 5786 5782 5781 5778 5774 5771 5768 5763 5759 5755 5749 5743 5737 5730 5722 5714 5706 5697 5687 5676 5665 5653 5641 5628 5615 5602 5589 5576 5564 5551 5538 5526 5513 5501 5488 5477 5466 5455 5446 5435 5424 5414 5403
5775 5772 5769 5768 5766 5763 5760 5757 5753 5750 5745 5740 5735 5729 5722 5715 5708 5700 5691 5681 5672 5661 5650 5638 5626 5613 5600 5587 5575 5562 5550 5537 5525 5513 5501 5489 5478 5467 5456 5445 5434 5425 5415 5404
5762 5759 5756 5755 5752 5751 5748 5745 5742 5739 5735 5730 5726 5720 5714 5707 5700 5693 5685 5676 5666 5656 5646 5634 5623 5610 5597 5585 5573 5561 5549 5537 5525 5513 5501 5489 5478 5467 5457 5447 5436 5426 5416 5406
5748 5743 5740 5740 5739 5738 5735 5732 5730 5728 5724 5720 5716 5710 5705 5699 5692 5686 5678 5669 5661 5651 5641 5630 5619 5607 5595 5583 5571 5559 5547 5535 5523 5512 5500 5489 5478 5467 5457 5447 5437 5427 5417 5407
5730 5726 5724 5723 5724 5723 5721 5719 5717 5715 5712 5708 5705 5700 5695 5690 5684 5678 5671 5663 5654 5645 5636 5626 5615 5604 5592 5580 5568 5557 5545 5534 5522 5511 5499 5488 5477 5467 5456 5447 5437 5428 5418 5409
5707 5706 5705 5705 5706 5707 5706 5705 5703 5701 5699 5696 5693 5689 5684 5679 5674 5669 5663 5655 5648 5639 5630 5621 5610 5600 5588 5577 5565 5554 5543 5532 5520 5509 5498 5487 5476 5466 5456 5446 5437 5428 5418 5409
5685 5684 5684 5685 5689 5691 5691 5691 5689 5687 5685 5683 5680 5677 5673 5669 5664 5659 5654 5647 5640 5632 5624 5615 5605 5595 5584 5573 5562 5551 5541 5530 5519 5508 5497 5486 5475 5465 5455 5446 5436 5427 5418 5409
5663 5663 5665 5667 5670 5672 5674 5674 5674 5673 5671 5669 5667 5664 5661 5657 5653 5649 5644 5638 5632 5625 5618 5609 5600 5590 5580 5570 5559 5549 5538 5527 5517 5506 5495 5485 5474 5464 5454 5445 5435 5426 5418 5409
5643 5643 5645 5648 5651 5654 5656 5656 5656 5655 5655 5654 5652 5651 5648 5645 5641 5638 5634 5629 5623 5617 5610 5603 5594 5585 5575 5565 5555 5545 5535 5525 5514 5504 5494 5483 5473 5462 5453 5444 5435 5426 5417 5408
5624 5625 5626 5629 5632 5635 5637 5638 5638 5638 5638 5638 5637 5636 5634 5632 5629 5626 5623 5619 5614 5609 5602 5595 5587 5579 5570 5561 5551 5541 5532 5522 5512 5502 5492 5481 5471 5461 5452 5442 5434 5425 5417 5408
5603 5604 5606 5609 5612 5615 5616 5618 5619 5620 5621 5621 5621 5621 5620 5618 5616 5614 5611 5608 5604 5599 5594 5587 5580 5572 5564 5555 5546 5537 5528 5519 5509 5499 5489 5479 5470 5460 5450 5441 5433 5424 5416 5408
5581 5582 5584 5587 5591 5594 5596 5598 5599 5601 5603 5604 5605 5605 5605 5604 5602 5601 5599 5597 5594 5590 5585 5579 5573 5565 5558 5549 5541 5533 5524 5515 5506 5496 5487 5477 5468 5458 5449 5440 5432 5423 5416 5408
5559 5560 5562 5565 5568 5572 5576 5578 5579 5582 5584 5586 5588 5589 5589 5590 5589 5588 5587 5584 5583 5579 5575 5570 5564 5558 5551 5543 5535 5528 5519 5511 5502 5493 5484 5475 5466 5457 5448 5439 5430 5422 5415 5407
5537 5538 5540 5543 5546 5550 5554 5557 5560 5563 5566 5568 5570 5572 5573 5574 5575 5574 5573 5572 5571 5569 5565 5560 5555 5550 5543 5536 5529 5522 5514 5507 5499 5490 5481 5472 5464 5455 5446 5437 5429 5421 5414 5406
5515 5517 5519 5521 5525 5529 5533 5537 5541 5544 5547 5550 5553 5555 5557 5559 5560 5560 5560 5560 5559 5557 5554 5551 5546 5541 5536 5529 5523 5516 5509 5502 5494 5486 5478 5470 5461 5453 5444 5436 5428 5420 5413 5405
5492 5494 5497 5501 5504 5508 5512 5516 5521 5525 5530 5533 5536 5539 5541 5543 5545 5547 5547 5548 5548 5546 5544 5541 5537 5533 5528 5522 5516 5510 5503 5497 5490 5482 5474 5467 5459 5450 5442 5434 5426 5419 5412 5405